SL-3 R/B

Satellite information

Favourite Embed

Satellite Type and Status

ROCKET BODYIN ORBIT

Key statistics

Satellite SL-3 R/B at a glance.

Uptime

17626

Days in orbit

Revolutions

≈ 14.1

Per day

Orbit

LEO

Low Earth Orbit

Inclination

81.3

Latest

Satellite identification and parameters

Extended collection of information and parameters for SL-3 R/B.

Object identification

Identified? True

Debris? False

Object name: SL-3 R/B

International designator: 1977-024B

Object number (NORAD): 9904

Object ID (CCSDS): 9904

Country: COMMONWEALTH OF INDEPENDENT STATES (CIS)

Current information (Y/N): Y

RCS size: LARGE

Orbital parameters

Period: 102.326 minutes

Inclination: 81.2635 deg

SMA: 7246.882 km

Apoapsis: 906.838 km

Periapsis: 830.657 km

RAAN: 165.916 deg

Eccentricy: 0.0052561

Argument of periapsis: 319.3275 deg

Mean anomaly: 40.3974 deg

Mean motion: 14.0726518 rev/day

Mean motion (dot): 0.00000012 rev/day2

B* drag term: 0.00000015437 1/REarth

Two-line elements (TLE)

Creation date: July 8, 2025, 2:27 a.m.

Reference frame: TEME

Reference center: EARTH

Epoch: July 7, 2025, 10:01 p.m. UTC

TLE line 0: 0 SL-3 R/B

TLE line 1: 1 09904U 77024B 25188.91766948 .00000012 00000-0 15437-6 0 9995

TLE line 2: 2 09904 81.2635 165.9160 0052561 319.3275 40.3974 14.07265180476363

Live tracking on map

Real-time ground track for satellite SL-3 R/B.

In-orbit conjunctions

A list of the most updated potential collisions computed for object SL-3 R/B.

Target Orbit TCA Probability of collision Miss distance Type
FENGYUN 1C DEB SSO 2024-09-08 04:23:36 0.0001240746 172.0 (m) DEBRIS

Associated space launch

The Meteor-1 series was the first series of Soviet meteorological satellites.

SL-3 R/B was lifted into orbit during the mission ‘Vostok 8A92M | Meteor-1 27 (39L)’, on board a Vostok 8A92M space rocket.

The launch took place on April 5, 1977, 2:05 a.m. from 43/3 (43L).

For more information about the launch, click the button.

Launch to space Vostok 8A92M | Meteor-1 27 (39L)
Vostok 8A92M | Meteor-1 27 (39L)

Agency: N/A

Status: Launch Successful

Launch date: April 5, 1977, 2:05 a.m. UTC

Rocket: Vostok 8A92M

Launch pad: 43/3 (43L)

Location: Plesetsk Cosmodrome, Russian Federation

...

Latest news about this satellite

There are no fresh news available about this satellite. Check back as we update our databases every day.


Newsletter sign-up

Weekly statistics, charts and insights to help you stay on top of the space industry.